TimeEDT,TemperatureF,Dew PointF,Humidity,Sea Level PressureIn,VisibilityMPH,Wind Direction,Wind SpeedMPH,Gust SpeedMPH,PrecipitationIn,Events,Conditions,WindDirDegrees,DateUTC
12:53 AM,53.1,51.1,93,30.14,10.0,Calm,Calm,-,N/A,,Clear,0,2012-09-26 04:53:00
1:53 AM,52.0,50.0,93,30.14,9.0,Calm,Calm,-,N/A,,Clear,0,2012-09-26 05:53:00
2:53 AM,53.1,51.1,93,30.13,10.0,Calm,Calm,-,N/A,,Clear,0,2012-09-26 06:53:00
3:53 AM,52.0,51.1,97,30.14,7.0,North,3.5,-,N/A,,Partly Cloudy,360,2012-09-26 07:53:00
4:53 AM,52.0,50.0,93,30.13,5.0,Calm,Calm,-,N/A,,Partly Cloudy,0,2012-09-26 08:53:00
5:53 AM,51.1,51.1,100,30.15,4.0,Calm,Calm,-,N/A,,Scattered Clouds,0,2012-09-26 09:53:00
6:53 AM,52.0,50.0,93,30.17,4.0,Calm,Calm,-,N/A,,Scattered Clouds,0,2012-09-26 10:53:00
7:53 AM,52.0,51.1,97,30.19,10.0,Calm,Calm,-,N/A,,Scattered Clouds,0,2012-09-26 11:53:00
8:53 AM,57.0,53.1,87,30.21,10.0,Calm,Calm,-,N/A,,Scattered Clouds,0,2012-09-26 12:53:00
9:53 AM,62.1,55.9,80,30.21,10.0,Calm,Calm,-,N/A,,Mostly Cloudy,0,2012-09-26 13:53:00
10:53 AM,68.0,57.9,70,30.21,10.0,Calm,Calm,-,N/A,,Scattered Clouds,0,2012-09-26 14:53:00
11:53 AM,73.9,57.9,57,30.20,10.0,Calm,Calm,-,N/A,,Scattered Clouds,0,2012-09-26 15:53:00
12:53 PM,77.0,57.9,52,30.18,10.0,Variable,5.8,-,N/A,,Scattered Clouds,0,2012-09-26 16:53:00
1:53 PM,75.9,55.0,48,30.17,10.0,SW,8.1,-,N/A,,Scattered Clouds,230,2012-09-26 17:53:00
2:53 PM,79.0,55.9,45,30.14,10.0,WSW,5.8,-,N/A,,Partly Cloudy,250,2012-09-26 18:53:00
3:53 PM,80.1,55.0,42,30.14,10.0,West,9.2,-,N/A,,Clear,260,2012-09-26 19:53:00
4:53 PM,80.1,55.0,42,30.13,10.0,SW,5.8,-,N/A,,Clear,220,2012-09-26 20:53:00
5:53 PM,79.0,55.0,44,30.12,10.0,SW,3.5,-,N/A,,Clear,220,2012-09-26 21:53:00
6:53 PM,75.9,57.0,52,30.12,10.0,Calm,Calm,-,N/A,,Clear,0,2012-09-26 22:53:00
7:53 PM,66.9,59.0,76,30.13,10.0,Calm,Calm,-,N/A,,Clear,0,2012-09-26 23:53:00
8:53 PM,63.0,57.9,84,30.15,10.0,Calm,Calm,-,N/A,,Clear,0,2012-09-27 00:53:00
9:53 PM,61.0,57.9,90,30.15,10.0,Calm,Calm,-,N/A,,Clear,0,2012-09-27 01:53:00
10:53 PM,60.1,57.0,90,30.14,10.0,Calm,Calm,-,N/A,,Scattered Clouds,0,2012-09-27 02:53:00
11:53 PM,57.0,55.9,96,30.16,7.0,Calm,Calm,-,N/A,,Scattered Clouds,0,2012-09-27 03:53:00